星链-3654 (STARLINK-3654 )

导读 | 星芒AI

STARLINK-3654 是 SpaceX Starlink 项目中的一颗低轨通信卫星,属于第三代星链卫星群。该卫星于2023年发射,旨在为全球用户提供高速、低延迟的互联网服务。它运行在约550公里高的近地轨道,采用先进推进系统和激光通信技术,以提升网络效率和稳定性。STARLINK-3654 的部署有助于扩展 Starlink 在偏远地区的覆盖能力,支持应急通信和商业应用。

基本信息
目录编号:
52003
目录名称:
STARLINK-3654
国际标识:
2022-025AZ
轨道中心:
EARTH
卫星名称:
星链-3654
卫星全名:
星链-3654 (STARLINK-3654 )
卫星状态:
已陨落 最后检测时间 2025-02-17
发射日期:
2022-03-09 UTC
国别 :
美国 (US)
星等 :
--
轨道信息
数据来源 国际轨道数据
星历时间: 2025-02-17T18:03:31+0800
轨道信息已过期306天
半长轴: 6526.898km
偏心率: 0.000864
轨道倾角: 53.192°
近地点辐角 269.823°
升交点赤经 276.780°
平近点角 215.399°
近地点: 143.123km
远地点: 154.403km
周期: 87.462分钟
每日圈数: 16.464274
详细信息
固有亮度:
5
最大亮度:
2.5
卫星平台:
Starlink v1.5
覆盖范围:
全球
运营商:
太空探索技术公司
运营商所在国:
美国
制造商(研发单位):
太空探索技术公司
制造商所在国:
美国
使用方式:
暂无
卫星简介
星链(Starlink)计划是由太空探索技术公司(SpaceX)提出的一个巨型低轨卫星互联网星座项目,计划在2019年至2024年间在太空搭建由约1.2万颗卫星组成的“星链”网络,其中1584颗将部署在地球上空550千米处的近地轨道,并从2020年开始工作。该卫星仍在工作。